Regional Weather Roundup
Issued by NWS

Home | Current Version | Previous Version | Text Only | Print | Product List | Glossary Off
Versions: 1 2 3 4 5 6 7 8 9 10 11 12 13 14 15 16 17 18 19 20 21 22 23 24 25 26 27

000
ASUS45 KCYS 120610
RWRWY

WYOMING REGIONAL WEATHER ROUNDUP
NATIONAL WEATHER SERVICE CHEYENNE WY
1100 PM MST MON DEC 11 2017

NOTE:  "FAIR" INDICATES FEW OR NO CLOUDS BELOW 12,000 FEET
WITH NO SIGNIFICANT WEATHER AND/OR OBSTRUCTIONS TO VISIBILITY.

WYZ001-120700-
YELLOWSTONE NATIONAL PARK

CITY           SKY/WX    TMP DP  RH WIND       PRES   REMARKS
LK YELLOWSTONE   N/A     11   9  92 CALM      30.59R
6HR MIN TEMP:  11; 6HR MAX TEMP:  24;

W YELLOWSTONE  NOT AVBL

$$
WYZ002>013-054>058-071-098>099-120700-
NORTHERN WYOMING

CITY           SKY/WX    TMP DP  RH WIND       PRES   REMARKS
JACKSON        FAIR      12   9  87 N9        30.59  WCI   0
CODY           FAIR      28  18  66 S3        30.40F
GREYBULL       FAIR      16   9  74 W5        30.44S WCI   9
6HR MIN TEMP:  16; 6HR MAX TEMP:  35;

WORLAND        FAIR      20  15  81 W3        30.42F
6HR MIN TEMP:  18; 6HR MAX TEMP:  33;

SHERIDAN       FAIR      24  17  74 CALM      30.36F
6HR MIN TEMP:  22; 6HR MAX TEMP:  35;

BUFFALO        FAIR      33  10  38 SW6       30.37F WCI  28
6HR MIN TEMP:  30; 6HR MAX TEMP:  40;

GILLETTE       FAIR      34  17  50 W13       30.35F WCI  25
6HR MIN TEMP:  26; 6HR MAX TEMP:  35;

HULETT         FAIR      25  18  74 SW8       30.36F WCI  16
NEWCASTLE      FAIR      23  14  68 N5        30.39F WCI  17

$$
WYZ014>020-022>026-101>103-120700-
CENTRAL WYOMING

CITY           SKY/WX    TMP DP  RH WIND       PRES   REMARKS
BIG PINEY      FAIR      18   5  57 NE6       30.54R WCI  10
6HR MIN TEMP:  18; 6HR MAX TEMP:  36;

PINEDALE       FAIR      18  12  79 NW3       30.54S
DUBOIS         FAIR      36   5  27 NW12      30.48S WCI  27
LANDER         FAIR      29  19  66 CALM      30.46R
6HR MIN TEMP:  25; 6HR MAX TEMP:  37;

RIVERTON       FAIR      25  17  72 W3        30.46F
6HR MIN TEMP:  20; 6HR MAX TEMP:  33;

CASPER         FAIR      27  17  66 W13       30.43S WCI  16
6HR MIN TEMP:  26; 6HR MAX TEMP:  33;

DOUGLAS        FAIR      20  17  88 CALM      30.42S
6HR MIN TEMP:  20; 6HR MAX TEMP:  35;


$$
WYZ021-027>030-104>119-120700-
SOUTHERN WYOMING

CITY           SKY/WX    TMP DP  RH WIND       PRES   REMARKS
EVANSTON       FAIR      33  10  38 CALM      30.55S
6HR MIN TEMP:  32; 6HR MAX TEMP:  43;

FORT BRIDGER   FAIR      38   8  28 W10       30.55R WCI  32
ROCK SPRINGS   FAIR      28  12  51 W3        30.50S
6HR MIN TEMP:  23; 6HR MAX TEMP:  44;

DIXON          FAIR      18  11  75 E3        30.55S
RAWLINS        FAIR      18  12  77 CALM      30.51R
6HR MIN TEMP:  17; 6HR MAX TEMP:  28;

SARATOGA       FAIR      18  10  73 CALM      30.52R
LARAMIE        FAIR      22  12  65 S6        30.46S WCI  14
6HR MIN TEMP:  18; 6HR MAX TEMP:  33;

CHEYENNE       FAIR      26  15  63 W10       30.43S WCI  16
6HR MIN TEMP:  24; 6HR MAX TEMP:  41;

TORRINGTON     FAIR      26  15  63 W9        30.41S WCI  17
6HR MIN TEMP:  25; 6HR MAX TEMP:  44;

PINE BLUFFS    FAIR      21  10  63 W8        30.43S WCI  12

$$




USA.gov is the U.S. government's official web portal to all federal, state and local government web resources and services.